Tracking 29932 objects as of 3-Dec-2024
HD Live streaming from Space Station
objects crossing your sky now

ONEWEB-0624

Track ONEWEB-0624 now!
10-day predictions
ONEWEB-0624 is classified as:


NORAD ID: 55165
Int'l Code: 2023-004AB
Perigee: 1,219.5 km
Apogee: 1,222.2 km
Inclination: 87.9 °
Period: 109.7 minutes
Semi major axis: 7591 km
RCS: Unknown
Launch date: January 10, 2023
Source: United Kingdom (UK)
Launch site: AIR FORCE WESTERN TEST RANGE (AFWTR)
Your satellite tracking list
Your tracking list is empty




NASA's NSSDC Master Catalog

Two Line Element Set (TLE):
1 55165U 23004AB  24337.78431380 -.00000079  00000-0 -25435-3 0  9994
2 55165  87.8874 102.4491 0001778 105.2794 254.8531 13.12444564 94418
Source of the keplerian elements: AFSPC